Location: Gleizolles
(44.4833°N, 6.7667°E)
Time: 05:54:43
(UTC+00:00)

Transit 4A - Pass Details

Date: 30 June 2024
Orbit: 870 x 973 km, 66.8° (Epoch: 14 July)

Event Time Altitude Azimuth Distance (km) Brightness Sun altitude
Rises 02:53:08 0° 333° (NNW) 3,489 11.2 -8.9°
Reaches altitude 10° 02:56:24 10° 351° (N) 2,561 10.7 -8.4°
Maximum altitude 03:00:32 19° 36° (NE) 2,005 10.9 -7.9°
Drops below altitude 10° 03:04:44 10° 80° (E) 2,600 11.2 -7.4°
Sets 03:08:04 0° 98° (E) 3,560 11.6 -6.9°
